THORAD DELTA 1 DEB, 8156

Orbit data source: Space-Track

THORAD DELTA 1 DEB, 8156 is space debris in SSO originally from a launch on Fri, 15 Nov 1974 UTC launched from the Air Force Western Test Range (AFWTR). Debris objects in space refer to the collection of defunct objects orbiting the Earth. Examples of debris include non-operational satellites, rocket bodies, and fragments generated from explosions, collisions, or faulty payload assembly.

Loading next visibility...
Identifier
8156, 1974-089W
Orbit
SSO
Country
Flag of USUS
Related business
Manufacturer
Unknown
Mission
Spacecraft
Bus & Motor
Unknown
Mass
Unknown
Launch date (UTC)
1974-11-15 (51 years ago)
Launch vehicle
Unknown
Launch site
Air Force Western Test Range (AFWTR)
Object type
Payload
Rocket body
Debris
Shape & HBR
Unknown shape, 0.1 m
Radar Cross Section
Small (<0.1 m²)

Expand to show TLE details & history
Last TLE update: 17 hours ago

TLE from 17 hours ago
0 THORAD DELTA 1 DEB
1 08156U 74089W   25300.18271469  .00000194  00000-0  12379-2 0  9994
2 08156 101.9085 277.0816 0055263  97.1159 274.4209 12.68217429353764
Epoch: 2025-10-27T04:23Z
TLE epoch observation values (Epoch: 2025-10-27T04:23:06.549Z)
Latitude
10.62253°
Longitude
173.26054°
Altitude
1,387.983 km
Speed
7.168 km/s
True Right ascension
18h 19m 18s
True Declination
10° 33' 56"
Sunlit
Object was in daylight at epoch
Visualization orbit readout
Latitude
Unknown
Longitude
Unknown
Altitude
Unknown
Speed
Unknown
Apparent Right ascension
Unknown
Apparent Declination
Unknown
Sunlit
N/A
Visualization observer readout
Local Sidereal Time
16:28:52
Azimuth
Unknown
Elevation
Unknown
Doppler factor
Unknown
Orbital elements
Apogee altitude
1,429.653 km
Perigee altitude
1,343.831 km
Semi-major axis
7,764.879 km
Eccentricity
0.00553
Inclination
101.9085°
RAAN
277.0816°
Arg. of periapsis
97.1159°
True anomaly
273.78919°
Mean anomaly
274.4209°
Eccentric anomaly
274.10508°
Mean motion
3.17206 °/min
Orbital period
113.49 mins
BSTAR
0.0012379
Loading maneuver chart data...
Computing Atmospheric mass density...
Loading historical data...
Loading historical data...
Loading historical data...
Loading historical data...
Loading historical data...
Loading historical data...
Loading historical data...

Documentation

Showing up to 5 results
|